Flag for China Weather past 2 weeks in Taiyuan, Shanxi, China

Now
79 °F

Passing clouds.


Feels Like: 79 °F
Forecast: 59 / 88 °F
Wind: 10 mph from Northeast

Location: Taiyuan Airport

Current Time: Aug 5, 2015 at 8:37:40 PM

Latest Report: Aug 5, 2015 at 8:00 PM


Visibility: N/A

Pressure: 29.68 "Hg (27.12 "Hg at 790m altitude)

Humidity: 34%

Dew point: 48 °F

Location of TaiyuanLocation

Historic Weather in Taiyuan — Graph

°F

Taiyuan temperature yesterday

Maximum temperature yesterday: 82 °F (at 3:00 PM)
Minimum temperature yesterday: 59 °F (at 2:00 AM)
Average temperature yesterday: 71 °F

Past Weeks' High & Low Weather Summary

 TemperatureHumidityPressure
High99 °F (Jul 30, 5:00 PM)94% (Aug 1, 11:30 PM)29.86 "Hg (Aug 1, 11:30 PM)
Low59 °F (Aug 4, 2:00 AM)19% (Jul 23, 6:30 PM)29.62 "Hg (Jul 30, 3:30 PM)
Average77 °F63%29.74 "Hg
* Reported Jul 21 7:00 PM — Aug 5 7:30 PM, Taiyuan, Weather by CustomWeather, © 2015

Note: Actual official high and low records may vary slightly from our data, if they occured in-between our weather recording intervals... More about our weather records

Advertising

Taiyuan weather history for previous 24 hours

 ConditionsComfort  
Time TempWeatherWind HumidityBarometerVisibility
7:30 PM
Wed, Aug 5
79 °FThunderstorms. Scattered clouds.6 mph42%29.68 "HgN/A
7:00 PM82 °FThunderstorms. Scattered clouds.3 mph48%29.71 "HgN/A
6:30 PM82 °FPassing clouds.3 mph51%29.68 "HgN/A
6:00 PM86 °FPassing clouds.3 mph43%29.68 "HgN/A
5:30 PM88 °FPassing clouds.3 mph38%29.65 "HgN/A
5:00 PM88 °FPassing clouds.1 mph38%29.68 "HgN/A
4:30 PM86 °FPassing clouds.3 mph38%29.68 "HgN/A
4:00 PM88 °FPassing clouds.3 mph35%29.68 "HgN/A
3:30 PM88 °FPassing clouds.3 mph38%29.68 "HgN/A
3:00 PM86 °FPassing clouds.3 mph40%29.68 "HgN/A
2:30 PM86 °FPassing clouds.3 mph38%29.68 "Hg5 mi
2:00 PM84 °FPassing clouds.3 mph43%29.71 "Hg4 mi
1:30 PM82 °FPassing clouds.1 mph45%29.71 "Hg4 mi
1:00 PM81 °FClear.3 mph51%29.74 "Hg4 mi
12:30 PM82 °FHaze.1 mph45%29.74 "Hg3 mi
12:00 PM79 °FHaze.3 mph58%29.74 "Hg3 mi
11:00 AM77 °FClear.3 mph65%29.77 "Hg4 mi
10:30 AM75 °FHaze.6 mph65%29.77 "Hg3 mi
10:00 AM73 °FHaze.6 mph69%29.77 "Hg3 mi
9:30 AM73 °FHaze.3 mph74%29.77 "Hg3 mi
9:00 AM72 °FFog.6 mph78%29.77 "Hg2 mi
8:30 AM72 °FFog.3 mph78%29.80 "Hg2 mi
8:00 AM70 °FFog.3 mph83%29.80 "Hg2 mi
7:30 AM68 °FFog.3 mph88%29.77 "Hg1 mi
7:00 AM68 °FFog.3 mph88%29.77 "Hg1 mi
6:30 AM66 °FFog.3 mph94%29.77 "Hg1 mi
6:00 AM66 °FFog.3 mph94%29.77 "Hg1 mi
5:30 AM66 °FFog.3 mph94%29.77 "Hg1 mi
5:00 AM66 °FFog.3 mph94%29.77 "Hg1 mi
4:30 AM68 °FFog.3 mph88%29.77 "Hg2 mi
4:00 AM66 °FFog.3 mph94%29.77 "Hg2 mi
3:30 AM66 °FFog.3 mph94%29.77 "Hg2 mi
3:00 AM68 °FFog.3 mph88%29.77 "Hg2 mi
2:30 AM68 °FFog.3 mph88%29.77 "Hg3 mi
2:00 AM68 °FFog.1 mph88%29.77 "Hg3 mi
1:30 AM68 °FFog.3 mph88%29.77 "Hg3 mi
1:00 AM68 °FFog.3 mph88%29.77 "Hg3 mi
12:30 AM68 °FFog.6 mph88%29.77 "Hg3 mi
12:00 AM70 °FFog.3 mph83%29.77 "Hg3 mi
11:30 PM
Tue, Aug 4
70 °FFog.3 mph83%29.77 "Hg3 mi
11:00 PM70 °FClear.3 mph88%29.74 "Hg10 mi
10:30 PM72 °FClear.3 mph83%29.74 "Hg10 mi
10:00 PM73 °FClear.3 mph78%29.74 "Hg10 mi
9:30 PM73 °FClear.3 mph74%29.74 "Hg10 mi
9:00 PM73 °FClear.3 mph74%29.74 "Hg10 mi
8:30 PM75 °FClear.1 mph69%29.71 "Hg10 mi
8:00 PM75 °FClear.3 mph74%29.71 "Hg10 mi
Weather by CustomWeather, © 2015

See weather overviewHow to use our weather pages